Weather History for Monument Pass, CO

Change the Weather History Date:

Sunday, December 16, 2012

  Actual Average (KAPA) Record (KAPA)
Temperature  
Mean Temperature -3 °C -  
Max Temperature 2 °C 4 °C 15 °C (2013)
Min Temperature -8 °C -8 °C -17 °C (2008)
Degree Days  
Heating Degree Days 39    
Moisture  
Dew Point -12 °C    
Average Humidity 54    
Maximum Humidity 74    
Minimum Humidity 28    
Precipitation  
Precipitation 0.00 mm - - ()
Sea Level Pressure  
Sea Level Pressure 1005 hPa    
Wind  
Wind Speed 13 km/h (West)    
Max Wind Speed 34 km/h    
Max Gust Speed 45 km/h    
Visibility 16 kilometers    
Events      
Averages and records for this station are not official NWS values.
T = Trace of Precipitation, MM = Missing Value Source: NWS Daily Summary

Daily Weather History Graph

Daily Weather History Graph

Search for Another Location

Airport:

Trip Planner

Search our weather history database for the weather conditions in past years. The results will help you decide how hot, cold, wet, or windy it might be!

Date:

Astronomy

Dec. 16, 2012 Rise Set
Actual Time 7:11 AM MST 4:37 PM MST
Civil Twilight 6:41 AM MST 5:07 PM MST
Nautical Twilight 6:08 AM MST 5:40 PM MST
Astronomical Twilight 5:35 AM MST 6:13 PM MST
Moon 9:48 AM MST (12/16) 8:52 PM MST (12/16)
Length of Visible Light 10h 25m
Length of Day
9h 25m
Waxing Crescent, 16% of the Moon is Illuminated
Dec 16
Waxing Crescent
Dec 19
First Quarter
Dec 28
Full
Jan 4
Last Quarter
Jan 11
New

Hourly Weather History & Observations

Time (MST) Temp. Windchill Dew Point Humidity Pressure Visibility Wind Dir Wind Speed Gust Speed Precip Events Conditions
12:14 AM -5.0 °C -10.1 °C -9.0 °C 74% 1004.6 hPa 16.1 km West 13.0 km/h / 3.6 m/s - N/A   Clear
12:33 AM -4.0 °C -7.2 °C -9.0 °C 69% 1004.3 hPa 16.1 km West 7.4 km/h / 2.1 m/s - N/A   Scattered Clouds
12:54 AM -4.0 °C -8.9 °C -9.0 °C 69% 1003.9 hPa 16.1 km WNW 13.0 km/h / 3.6 m/s - N/A   Mostly Cloudy
1:14 AM -5.0 °C -10.1 °C -9.0 °C 74% 1003.9 hPa 16.1 km WNW 13.0 km/h / 3.6 m/s - N/A   Overcast
1:53 AM -4.0 °C -7.2 °C -9.0 °C 69% 1004.3 hPa 16.1 km SSW 7.4 km/h / 2.1 m/s - N/A   Overcast
2:13 AM -4.0 °C -7.2 °C -9.0 °C 69% 1004.3 hPa 16.1 km South 7.4 km/h / 2.1 m/s - N/A   Scattered Clouds
2:34 AM -4.0 °C -8.4 °C -9.0 °C 69% 1004.3 hPa 16.1 km SW 11.1 km/h / 3.1 m/s - N/A   Clear
2:54 AM -3.0 °C -6.7 °C -10.0 °C 59% 1004.3 hPa 16.1 km SW 9.3 km/h / 2.6 m/s - N/A   Clear
3:14 AM -4.0 °C -8.4 °C -10.0 °C 64% 1004.3 hPa 16.1 km SW 11.1 km/h / 3.1 m/s - N/A   Clear
3:34 AM -3.0 °C -7.6 °C -10.0 °C 59% 1004.3 hPa 16.1 km SW 13.0 km/h / 3.6 m/s - N/A   Clear
4:14 AM -6.0 °C -9.5 °C -10.0 °C 74% 1004.3 hPa 16.1 km SSW 7.4 km/h / 2.1 m/s - N/A   Clear
4:34 AM -6.0 °C -10.8 °C -11.0 °C 68% 1004.3 hPa 16.1 km SSW 11.1 km/h / 3.1 m/s - N/A   Clear
4:54 AM -6.0 °C -10.8 °C -11.0 °C 68% 1004.6 hPa 16.1 km SW 11.1 km/h / 3.1 m/s - N/A   Clear
5:14 AM -7.0 °C -11.4 °C -11.0 °C 74% 1003.9 hPa 16.1 km SSW 9.3 km/h / 2.6 m/s - N/A   Clear
5:34 AM -7.0 °C -12.5 °C -11.0 °C 74% 1003.9 hPa 16.1 km SW 13.0 km/h / 3.6 m/s - N/A   Clear
5:54 AM -5.0 °C -10.5 °C -11.0 °C 63% 1003.9 hPa 16.1 km SW 14.8 km/h / 4.1 m/s - N/A   Clear
6:14 AM -8.0 °C -14.2 °C -12.0 °C 73% 1003.9 hPa 16.1 km SSW 14.8 km/h / 4.1 m/s - N/A   Clear
6:34 AM -5.0 °C -10.5 °C -12.0 °C 59% 1003.9 hPa 16.1 km SW 14.8 km/h / 4.1 m/s - N/A   Clear
6:54 AM -7.0 °C -12.0 °C -12.0 °C 68% 1004.3 hPa 16.1 km SSW 11.1 km/h / 3.1 m/s - N/A   Clear
7:14 AM -7.0 °C -13.0 °C -13.0 °C 63% 1004.3 hPa 16.1 km SSW 14.8 km/h / 4.1 m/s - N/A   Clear
7:34 AM -6.0 °C -12.1 °C -13.0 °C 58% 1004.3 hPa 16.1 km SW 16.7 km/h / 4.6 m/s - N/A   Clear
7:54 AM -5.0 °C -9.6 °C -12.0 °C 59% 1004.3 hPa 16.1 km SSW 11.1 km/h / 3.1 m/s - N/A   Clear
8:13 AM -3.0 °C -7.6 °C -12.0 °C 51% 1004.6 hPa 16.1 km SSW 13.0 km/h / 3.6 m/s - N/A   Clear
8:33 AM -2.0 °C -7.5 °C -11.0 °C 51% 1004.6 hPa 16.1 km WSW 18.5 km/h / 5.1 m/s - N/A   Clear
8:53 AM 0.0 °C -5.5 °C -11.0 °C 44% 1004.6 hPa 16.1 km WSW 22.2 km/h / 6.2 m/s - N/A   Clear
9:14 AM 0.0 °C -5.0 °C -12.0 °C 41% 1004.6 hPa 16.1 km SW 18.5 km/h / 5.1 m/s - N/A   Clear
9:34 AM 0.0 °C -6.0 °C -12.0 °C 41% 1004.6 hPa 16.1 km SW 25.9 km/h / 7.2 m/s - N/A   Clear
9:54 AM 1.0 °C -4.7 °C -13.0 °C 35% 1004.6 hPa 16.1 km SW 25.9 km/h / 7.2 m/s 33.3 km/h / 9.3 m/s N/A   Clear
10:14 AM 1.0 °C -4.5 °C -12.0 °C 38% 1004.6 hPa 16.1 km WSW 24.1 km/h / 6.7 m/s 33.3 km/h / 9.3 m/s N/A   Clear
10:34 AM 2.0 °C -2.2 °C -13.0 °C 33% 1004.3 hPa 16.1 km West 16.7 km/h / 4.6 m/s 33.3 km/h / 9.3 m/s N/A   Clear
10:54 AM 2.0 °C -4.0 °C -13.0 °C 33% 1004.3 hPa 16.1 km West 31.5 km/h / 8.7 m/s - N/A   Clear
11:34 AM 2.0 °C -3.8 °C -13.0 °C 33% 1003.9 hPa 16.1 km WNW 29.6 km/h / 8.2 m/s - N/A   Clear
11:54 AM 2.0 °C -2.5 °C -13.0 °C 33% 1003.6 hPa 16.1 km WNW 18.5 km/h / 5.1 m/s - N/A   Clear
12:14 PM 2.0 °C -3.2 °C -13.0 °C 33% 1003.6 hPa 16.1 km WNW 24.1 km/h / 6.7 m/s - N/A   Scattered Clouds
12:34 PM 2.0 °C -2.2 °C -15.0 °C 28% 1003.3 hPa 16.1 km NNW 16.7 km/h / 4.6 m/s - N/A   Scattered Clouds
12:54 PM 1.0 °C -2.8 °C -13.0 °C 35% 1003.3 hPa 16.1 km NNW 13.0 km/h / 3.6 m/s - N/A   Mostly Cloudy
1:14 PM 2.0 °C -1.2 °C -13.0 °C 33% 1003.3 hPa 16.1 km North 11.1 km/h / 3.1 m/s - N/A   Overcast
1:34 PM 2.0 °C -0.2 °C -15.0 °C 28% 1002.9 hPa 16.1 km North 7.4 km/h / 2.1 m/s - N/A   Overcast
1:54 PM 2.0 °C -0.7 °C -15.0 °C 28% 1003.3 hPa 16.1 km North 9.3 km/h / 2.6 m/s - N/A   Overcast
2:14 PM 2.0 °C -0.7 °C -15.0 °C 28% 1003.3 hPa 16.1 km North 9.3 km/h / 2.6 m/s - N/A   Overcast
2:34 PM 1.0 °C -2.4 °C -13.0 °C 35% 1003.6 hPa 16.1 km NNE 11.1 km/h / 3.1 m/s - N/A   Overcast
2:54 PM 2.0 °C -1.2 °C -13.0 °C 33% 1003.9 hPa 16.1 km NNE 11.1 km/h / 3.1 m/s - N/A   Overcast
3:14 PM 1.0 °C -2.4 °C -12.0 °C 38% 1004.3 hPa 16.1 km North 11.1 km/h / 3.1 m/s - N/A   Overcast
3:34 PM 0.0 °C -4.4 °C -10.0 °C 48% 1004.6 hPa 16.1 km North 14.8 km/h / 4.1 m/s - N/A   Overcast
3:54 PM 0.0 °C -5.3 °C -10.0 °C 48% 1005.0 hPa 16.1 km North 20.4 km/h / 5.7 m/s - N/A   Overcast
4:14 PM 0.0 °C -5.0 °C -10.0 °C 48% 1005.6 hPa 16.1 km North 18.5 km/h / 5.1 m/s - N/A   Overcast
4:34 PM 0.0 °C -4.7 °C -10.0 °C 48% 1006.0 hPa 16.1 km NNW 16.7 km/h / 4.6 m/s - N/A   Overcast
4:54 PM -1.0 °C -3.7 °C -8.0 °C 60% 1006.3 hPa 16.1 km WNW 7.4 km/h / 2.1 m/s - N/A   Overcast
5:13 PM -1.0 °C -4.3 °C -8.0 °C 60% 1006.7 hPa 16.1 km NNW 9.3 km/h / 2.6 m/s - N/A   Overcast
5:34 PM -1.0 °C -8.1 °C -11.0 °C 47% 1007.7 hPa 16.1 km NW 33.3 km/h / 9.3 m/s 44.4 km/h / 12.3 m/s N/A   Overcast
5:54 PM -2.0 °C -8.1 °C -9.0 °C 59% 1007.7 hPa 16.1 km WNW 22.2 km/h / 6.2 m/s 33.3 km/h / 9.3 m/s N/A   Overcast
6:13 PM -2.0 °C -7.8 °C -10.0 °C 55% 1007.7 hPa 16.1 km NNW 20.4 km/h / 5.7 m/s 33.3 km/h / 9.3 m/s N/A   Overcast
6:34 PM -3.0 °C -8.4 °C -12.0 °C 51% 1008.0 hPa 16.1 km NNW 16.7 km/h / 4.6 m/s - N/A   Scattered Clouds
6:54 PM -4.0 °C -8.9 °C -12.0 °C 54% 1008.4 hPa 16.1 km NNW 13.0 km/h / 3.6 m/s - N/A   Clear
7:14 PM -5.0 °C -8.4 °C -13.0 °C 54% 1008.4 hPa 16.1 km North 7.4 km/h / 2.1 m/s - N/A   Clear
7:34 PM -5.0 °C -8.4 °C -13.0 °C 54% 1008.7 hPa 16.1 km WNW 7.4 km/h / 2.1 m/s - N/A   Scattered Clouds
7:54 PM -6.0 °C -10.8 °C -13.0 °C 58% 1008.7 hPa 16.1 km West 11.1 km/h / 3.1 m/s - N/A   Scattered Clouds
8:13 PM -6.0 °C -10.8 °C -12.0 °C 63% 1009.0 hPa 16.1 km West 11.1 km/h / 3.1 m/s - N/A   Clear
8:33 PM -6.0 °C -10.2 °C -13.0 °C 58% 1008.7 hPa 16.1 km WSW 9.3 km/h / 2.6 m/s - N/A   Clear
8:54 PM -6.0 °C -9.5 °C -13.0 °C 58% 1008.7 hPa 16.1 km WSW 7.4 km/h / 2.1 m/s - N/A   Clear
9:14 PM -7.0 °C -11.4 °C -13.0 °C 63% 1008.4 hPa 16.1 km SSW 9.3 km/h / 2.6 m/s - N/A   Clear
9:34 PM -8.0 °C -13.7 °C -13.0 °C 68% 1008.4 hPa 16.1 km SSW 13.0 km/h / 3.6 m/s - N/A   Clear
9:53 PM -6.0 °C -12.1 °C -13.0 °C 58% 1008.4 hPa 16.1 km SW 16.7 km/h / 4.6 m/s - N/A   Clear
10:14 PM -5.0 °C -10.1 °C -13.0 °C 54% 1008.4 hPa 16.1 km SW 13.0 km/h / 3.6 m/s - N/A   Clear
10:34 PM -6.0 °C -11.7 °C -13.0 °C 58% 1008.4 hPa 16.1 km SW 14.8 km/h / 4.1 m/s - N/A   Clear
10:54 PM -7.0 °C -13.4 °C -13.0 °C 63% 1008.4 hPa 16.1 km WSW 16.7 km/h / 4.6 m/s - N/A   Clear
11:14 PM -7.0 °C -13.8 °C -13.0 °C 63% 1008.4 hPa 16.1 km WSW 18.5 km/h / 5.1 m/s - N/A   Clear
11:33 PM -7.0 °C -13.0 °C -13.0 °C 63% 1008.4 hPa 16.1 km WSW 14.8 km/h / 4.1 m/s - N/A   Clear
11:54 PM -7.0 °C -13.4 °C -14.0 °C 58% 1008.0 hPa 16.1 km WSW 16.7 km/h / 4.6 m/s - N/A   Clear